Regional Weather Roundup
Issued by NWS Green Bay, WI

Home | Current Version | Previous Version | Text Only | Print | Product List | Glossary On
Versions: 1 2 3 4 5 6 7 8 9 10 11 12 13 14 15 16 17 18 19 20 21 22 23 24 25 26 27 28 29 30 31 32 33 34 35 36 37 38 39 40 41 42 43 44 45 46 47 48 49 50
000
ASUS43 KGRB 250610
RWRGRB

NORTH-CENTRAL AND NORTHEAST WISCONSIN REGIONAL WEATHER ROUNDUP
NATIONAL WEATHER SERVICE GREEN BAY WI
1200 AM CST THU DEC 25 2014

WIZ005-009-010>012-018-019-250700-
NORTH CENTRAL WISCONSIN

CITY           SKY/WX    TMP DP  RH WIND       PRES   REMARKS
IRONWOOD       CLOUDY    30  30 100 W10       29.46S
MANITOWISH WTR CLOUDY    29  29 100 W6        29.48S
ARBOR VITAE    CLOUDY    32  30  93 W6        29.49S
EAGLE RIVER    CLOUDY    30  29  97 W9        29.48R
LAND O LAKES   CLOUDY    31  30  96 W7        29.48R
RHINELANDER    CLOUDY    30  28  92 W8        29.50R
PHILLIPS       CLOUDY    30  29  95 W5        29.51S
ANTIGO         CLOUDY    30  28  94 W9        29.50S
TOMAHAWK       CLOUDY    30  28  92 CALM      29.51S
MERRILL        CLOUDY    32  29  91 W9        29.52S
$$

WIZ013-073-250700-
NORTHEAST WISCONSIN

CITY           SKY/WX    TMP DP  RH WIND       PRES   REMARKS
IRON MOUNTAIN  CLOUDY    32  27  81 W9        29.45R
MARINETTE      CLOUDY    34  28  80 W8        29.48R
OCONTO         CLOUDY    33  31  96 W10       29.51R
$$

WIZ017-030-035>037-045-250700-
CENTRAL WISCONSIN

CITY           SKY/WX    TMP DP  RH WIND       PRES   REMARKS
MEDFORD        CLOUDY    30  28  92 W7        29.54S
WAUSAU         MOCLDY    31  27  85 W9        29.53R
MOSINEE        PTCLDY    30  30 100 W7        29.55S
MARSHFIELD     CLOUDY    33  28  81 W10       29.56R
WISC RAPIDS    CLOUDY    33  27  78 W5        29.58S
STEVENS POINT  CLOUDY    31  28  88 W6        29.56S
WAUPACA        CLOUDY    36  32  86 W10       29.57R
SHAWANO        CLOUDY    35  30  83 W8G16     29.53R
CLINTONVILLE   MOCLDY    32  30  93 W7        29.54R
$$

WIZ038-039-048-051-250700-
FOX VALLEY

CITY           SKY/WX    TMP DP  RH WIND       PRES   REMARKS
NWS GREEN BAY  CLOUDY    34  31  88 W12       29.53R
APPLETON       CLOUDY    32  32 100 W12G17    29.55R
OSHKOSH        CLOUDY    34  30  85 W9        29.56R
FOND DU LAC    CLOUDY    34  30  85 W12       29.56R
$$

WIZ022-050-052-250700-
EAST CENTRAL WISCONSIN

CITY           SKY/WX    TMP DP  RH WIND       PRES   REMARKS
STURGEON BAY   CLOUDY    34  28  80 W10       29.51R
MANITOWOC      CLOUDY    34  32  92 W12       29.53R
SHEBOYGAN      CLOUDY    34  30  85 W13G21    29.54R
$$

LMZ563-521-522-541>543-250700-
LAKESHORE

STATION/POSITION TIME  TEMP    WIND        PRES    VSBY  WAVE
                       AIR SEA DIR/SP/G                  HT/PER
                 (UTC) (F)     (DEG/KT/KT) (MB)    (MI)  (FT/S)
SHEBOYGAN LKSHOR 0600   35 37  280/ 13/ 18 1001.2R
KEWAUNEE LKSHORE 0600   34     280/  7/ 12  998.5R
ALGOMA MARINA    0600          310/  9/ 13   N/A
NORTHPORT PIER   0600   33     280/  7/ 12  998.0R
SISTER BAY LKSHO 0500          300/ 15/ 17   N/A
CHAMBERS ISLAND  0600   33     230/  8/ 14  998.6R
MENOMINEE LKSHOR 0600   34     250/  9/ 12  999.3R
$$


USA.gov is the U.S. government's official web portal to all federal, state and local government web resources and services.